Location: Newark
(27.3794°N, 52.7375°E)
Time: 11:22:36
(UTC+00:00)

N. Korean satellite - Visible Passes

Search period start: 20 September 2020 00:00
Search period end: 30 September 2020 00:00
Orbit: 455 x 503 km, 97.2° (Epoch: 19 September)

Date Brightness Start Highest point End Pass type
(mag) Time Alt. Az. Time Alt. Az. Time Alt. Az.
20 Sep 9.1 01:20:32 10° NE 01:23:35 25° E 01:26:33 10° SSE visible
21 Sep 10.2 00:56:42 10° E 00:57:28 11° E 00:58:13 10° ESE visible
23 Sep 8.0 01:35:28 10° NNE 01:38:55 42° E 01:42:18 10° S visible
24 Sep 9.7 01:10:22 10° NE 01:12:51 17° E 01:15:17 10° SE visible
26 Sep 6.8 01:50:37 10° NNE 01:54:13 77° E 01:57:44 10° S visible
27 Sep 8.8 01:25:01 10° NE 01:28:10 29° E 01:31:17 10° SSE visible
28 Sep 10.0 01:00:34 10° ENE 01:02:04 12° E 01:03:32 10° ESE visible
